Volver al catálogo

DIANJIAN-1

ActivoCienciaSSO
NORAD 69098·PAYLOAD·🇨🇳 China
Este nombre de satélite aún no ha sido confirmado por fuentes oficiales.

Lanzado May 15, 2026 desde Jiuquan Satellite Launch Center

Loading…

Próximos Pases (próximas 24 horas)

TLE

ActualizadoSource: Space-Track

Época: Sep 14, 2026, 13:29 UTC

1 69098U 26106B   26257.56193611  .00003363  00000-0  20924-3 0  9996
2 69098  97.5028 337.7742 0013873 209.5162 150.5286 15.10215037 18466

Sigue DIANJIAN-1 en tiempo real con AllMySat

Download on the App Store